DAL1054 KCMH-KBNA

Flight info

Callsign DAL1054
Flight time N/A
Altitude 32000
Route POBSE OHIOS YOCKY CUTRR PASLY5
Aircraft B738/M-SDE2E3FGHIRWXY/LB1

Departure

Time 2026-04-30 01:59
Airport John Glenn Columbus International Airport (KCMH)

Arrival

Time N/A
Airport Nashville International Airport (KBNA)
Time Latitude Longitude Altitude Speed Heading
2026-04-30 01:26 39.99743 -82.88003 817 ft 0 kts 277°
2026-04-30 01:52 39.99737 -82.87966 819 ft 4 kts 294°
2026-04-30 01:52 39.99729 -82.87946 819 ft 4 kts 307°
2026-04-30 01:52 39.99710 -82.87922 821 ft 4 kts 331°
2026-04-30 01:53 39.99686 -82.87911 820 ft 3 kts
2026-04-30 01:53 39.99683 -82.87912 820 ft 1 kts
2026-04-30 01:55 39.99688 -82.87911 819 ft 4 kts
2026-04-30 01:55 39.99756 -82.87905 822 ft 15 kts
2026-04-30 01:56 39.99863 -82.87895 822 ft 15 kts
2026-04-30 01:56 39.99966 -82.87942 820 ft 15 kts 340°
2026-04-30 01:56 40.00031 -82.87947 825 ft 6 kts
2026-04-30 01:56 40.00064 -82.87941 817 ft 4 kts
2026-04-30 01:57 40.00072 -82.87940 816 ft 0 kts
2026-04-30 01:57 40.00098 -82.87937 815 ft 8 kts
2026-04-30 01:57 40.00152 -82.87968 816 ft 10 kts 310°
2026-04-30 01:57 40.00166 -82.88043 818 ft 0 kts 273°
2026-04-30 01:58 40.00166 -82.88046 819 ft 3 kts 273°
2026-04-30 01:58 40.00173 -82.88168 820 ft 24 kts 274°
2026-04-30 01:58 40.00205 -82.88726 823 ft 104 kts 274°
2026-04-30 01:58 40.00283 -82.90008 880 ft 172 kts 276°
2026-04-30 01:59 40.00574 -82.93557 2310 ft 217 kts 278°
2026-04-30 01:59 40.00725 -82.95577 3183 ft 227 kts 279°
2026-04-30 01:59 40.00872 -82.97559 4190 ft 223 kts 277°
2026-04-30 02:00 40.00988 -82.99593 4723 ft 223 kts 277°
2026-04-30 02:00 40.01097 -83.01511 4979 ft 238 kts 277°
2026-04-30 02:00 40.01229 -83.03728 4990 ft 248 kts 277°
2026-04-30 02:00 40.01364 -83.05955 5021 ft 250 kts 276°
2026-04-30 02:01 40.01501 -83.08158 5039 ft 248 kts 277°
2026-04-30 02:01 40.01641 -83.10374 5030 ft 248 kts 277°
2026-04-30 02:01 40.01787 -83.12674 5043 ft 248 kts 277°
2026-04-30 02:01 40.01823 -83.13251 5040 ft 248 kts 277°
2026-04-30 02:02 40.01969 -83.15522 5040 ft 248 kts 277°
2026-04-30 02:02 40.02114 -83.17739 5044 ft 248 kts 277°
2026-04-30 02:02 40.02260 -83.19982 5031 ft 248 kts 277°
2026-04-30 02:02 40.02401 -83.22216 5046 ft 248 kts 275°
2026-04-30 02:03 40.02018 -83.24400 5413 ft 262 kts 240°
2026-04-30 02:03 40.00595 -83.25914 6368 ft 272 kts 204°
2026-04-30 02:03 39.98696 -83.26148 7268 ft 283 kts 171°
2026-04-30 02:03 39.96927 -83.24998 8085 ft 294 kts 139°
2026-04-30 02:04 39.96861 -83.24920 8126 ft 295 kts 137°
2026-04-30 02:04 39.96544 -83.24481 8301 ft 297 kts 130°
2026-04-30 02:04 39.96495 -83.24403 8320 ft 298 kts 129°
2026-04-30 02:04 39.95989 -83.23392 8626 ft 304 kts 118°
2026-04-30 02:05 39.95733 -83.22678 8837 ft 306 kts 113°
2026-04-30 02:05 39.94693 -83.20278 9652 ft 305 kts 138°
2026-04-30 02:05 39.92927 -83.18874 10386 ft 299 kts 167°
2026-04-30 02:05 39.90853 -83.18209 10653 ft 319 kts 173°
2026-04-30 02:06 39.88598 -83.17562 10841 ft 343 kts 172°
2026-04-30 02:06 39.86240 -83.16797 11011 ft 366 kts 169°
2026-04-30 02:06 39.83708 -83.15856 11175 ft 388 kts 167°
2026-04-30 02:06 39.81082 -83.14769 11515 ft 402 kts 166°
2026-04-30 02:07 39.78405 -83.13577 12106 ft 408 kts 166°
2026-04-30 02:07 39.75725 -83.12329 12804 ft 410 kts 166°
2026-04-30 02:07 39.73030 -83.11048 13397 ft 415 kts 166°
2026-04-30 02:07 39.70299 -83.09738 13982 ft 420 kts 166°
2026-04-30 02:08 39.67545 -83.08412 14531 ft 424 kts 166°
2026-04-30 02:08 39.64771 -83.07078 15079 ft 427 kts 166°
2026-04-30 02:08 39.61975 -83.05735 15645 ft 431 kts 167°
2026-04-30 02:08 39.59147 -83.04379 16160 ft 434 kts 167°
2026-04-30 02:09 39.56303 -83.03017 16727 ft 437 kts 167°
2026-04-30 02:09 39.53435 -83.01646 17236 ft 441 kts 167°
2026-04-30 02:09 39.50584 -83.00286 17726 ft 445 kts 167°
2026-04-30 02:09 39.47663 -82.98893 18227 ft 448 kts 167°
2026-04-30 02:10 39.44725 -82.97494 18659 ft 452 kts 167°
2026-04-30 02:10 39.41760 -82.96082 19100 ft 455 kts 167°
2026-04-30 02:10 39.38781 -82.94665 19544 ft 457 kts 167°
2026-04-30 02:10 39.35781 -82.93239 19946 ft 460 kts 167°
2026-04-30 02:11 39.32772 -82.91810 20415 ft 462 kts 167°
2026-04-30 02:11 39.29743 -82.90372 20857 ft 465 kts 167°
2026-04-30 02:11 39.26703 -82.88932 21263 ft 468 kts 167°
2026-04-30 02:11 39.23632 -82.87478 21656 ft 471 kts 167°
2026-04-30 02:12 39.20546 -82.86019 22044 ft 473 kts 167°
2026-04-30 02:12 39.17448 -82.84555 22426 ft 476 kts 167°
2026-04-30 02:12 39.14455 -82.83160 22762 ft 477 kts 169°
2026-04-30 02:12 39.11213 -82.81679 23094 ft 480 kts 168°
2026-04-30 02:13 39.08058 -82.80190 23438 ft 483 kts 167°
2026-04-30 02:13 39.04892 -82.78673 23720 ft 486 kts 167°
2026-04-30 02:13 39.01712 -82.77149 24004 ft 488 kts 168°
2026-04-30 02:13 38.98531 -82.75640 24295 ft 490 kts 168°
2026-04-30 02:14 38.95362 -82.74206 24566 ft 488 kts 173°
2026-04-30 02:14 38.92065 -82.73720 24773 ft 466 kts 193°
2026-04-30 02:14 38.88983 -82.74613 25077 ft 447 kts 208°
2026-04-30 02:14 38.86204 -82.76256 25436 ft 435 kts 218°
2026-04-30 02:15 38.83793 -82.78508 25757 ft 424 kts 229°
2026-04-30 02:15 38.81626 -82.81069 26157 ft 421 kts 230°
2026-04-30 02:15 38.79488 -82.83621 26628 ft 418 kts 230°
2026-04-30 02:15 38.77363 -82.86152 27120 ft 415 kts 230°
2026-04-30 02:16 38.75250 -82.88655 27590 ft 412 kts 230°
2026-04-30 02:16 38.73137 -82.91144 28040 ft 411 kts 230°
2026-04-30 02:16 38.71029 -82.93616 28498 ft 409 kts 231°
2026-04-30 02:16 38.68963 -82.96030 28979 ft 406 kts 231°
2026-04-30 02:17 38.66877 -82.98459 29407 ft 403 kts 231°
2026-04-30 02:17 38.64799 -83.00879 29782 ft 403 kts 231°
2026-04-30 02:17 38.62715 -83.03305 30117 ft 403 kts 232°
2026-04-30 02:17 38.60672 -83.05681 30452 ft 402 kts 232°
2026-04-30 02:18 38.58600 -83.08086 30816 ft 400 kts 232°
2026-04-30 02:18 38.56540 -83.10473 31183 ft 399 kts 232°
2026-04-30 02:18 38.54488 -83.12852 31495 ft 398 kts 232°
2026-04-30 02:18 38.52438 -83.15226 31766 ft 399 kts 232°
2026-04-30 02:19 38.50382 -83.17607 31963 ft 399 kts 232°
2026-04-30 02:19 38.46268 -83.22363 31950 ft 398 kts 232°
2026-04-30 02:20 38.42161 -83.27100 31954 ft 397 kts 232°
2026-04-30 02:20 38.38082 -83.31802 31966 ft 398 kts 232°
2026-04-30 02:21 38.33965 -83.36538 31966 ft 398 kts 232°
2026-04-30 02:21 38.29851 -83.41262 31964 ft 398 kts 232°
2026-04-30 02:22 38.25730 -83.45987 32006 ft 399 kts 232°
2026-04-30 02:22 38.21603 -83.50710 32007 ft 399 kts 232°
2026-04-30 02:23 38.17476 -83.55426 32009 ft 398 kts 232°
2026-04-30 02:23 38.13350 -83.60133 32014 ft 398 kts 232°
2026-04-30 02:24 38.09232 -83.64825 32002 ft 398 kts 231°
2026-04-30 02:24 38.05131 -83.69488 31997 ft 398 kts 232°
2026-04-30 02:25 38.01008 -83.74171 31987 ft 398 kts 232°
2026-04-30 02:25 37.96886 -83.78846 32009 ft 398 kts 231°
2026-04-30 02:26 37.92753 -83.83524 31974 ft 398 kts 231°
2026-04-30 02:26 37.88625 -83.88191 31961 ft 398 kts 231°
2026-04-30 02:27 37.84495 -83.92852 31978 ft 398 kts 231°
2026-04-30 02:27 37.80385 -83.97482 31982 ft 398 kts 231°
2026-04-30 02:28 37.76319 -84.02054 31978 ft 397 kts 231°
2026-04-30 02:28 37.72188 -84.06694 32006 ft 397 kts 231°
2026-04-30 02:29 37.68057 -84.11328 32019 ft 397 kts 231°
2026-04-30 02:29 37.63921 -84.15962 32027 ft 397 kts 231°
2026-04-30 02:30 37.59811 -84.20557 32030 ft 396 kts 231°
2026-04-30 02:30 37.55682 -84.25159 32036 ft 395 kts 231°
2026-04-30 02:31 37.51565 -84.29751 32030 ft 395 kts 231°
2026-04-30 02:31 37.47444 -84.34340 32024 ft 394 kts 231°
2026-04-30 02:32 37.43331 -84.38911 31991 ft 394 kts 231°
2026-04-30 02:32 37.39252 -84.43437 31989 ft 393 kts 231°
2026-04-30 02:33 37.35139 -84.47995 31993 ft 393 kts 231°
2026-04-30 02:33 37.31042 -84.52524 31987 ft 391 kts 232°
2026-04-30 02:34 37.26962 -84.57032 31991 ft 391 kts 232°
2026-04-30 02:34 37.22851 -84.61567 32001 ft 391 kts 232°
2026-04-30 02:35 37.18759 -84.66076 32010 ft 391 kts 232°
2026-04-30 02:35 37.14687 -84.70554 31819 ft 392 kts 231°
2026-04-30 02:35 37.12636 -84.72806 31559 ft 391 kts 231°
2026-04-30 02:36 37.10589 -84.75049 31248 ft 390 kts 232°
2026-04-30 02:36 37.08548 -84.77292 31007 ft 391 kts 231°
2026-04-30 02:36 37.07188 -84.78785 30857 ft 392 kts 231°
2026-04-30 02:36 37.05134 -84.81037 30613 ft 392 kts 232°
2026-04-30 02:37 37.03227 -84.83432 30368 ft 385 kts 238°
2026-04-30 02:37 37.01574 -84.86050 30161 ft 380 kts 243°
2026-04-30 02:37 37.00197 -84.88857 29898 ft 378 kts 246°
2026-04-30 02:37 36.98862 -84.91691 29615 ft 379 kts 246°
2026-04-30 02:38 36.97514 -84.94543 29347 ft 381 kts 246°
2026-04-30 02:38 36.96162 -84.97395 29064 ft 383 kts 245°
2026-04-30 02:38 36.94839 -85.00176 28808 ft 384 kts 245°
2026-04-30 02:38 36.93470 -85.03046 28542 ft 386 kts 245°
2026-04-30 02:39 36.92087 -85.05939 28286 ft 388 kts 245°
2026-04-30 02:39 36.90715 -85.08805 28017 ft 390 kts 245°
2026-04-30 02:39 36.89318 -85.11719 27762 ft 392 kts 245°
2026-04-30 02:39 36.87910 -85.14654 27451 ft 394 kts 245°
2026-04-30 02:40 36.86500 -85.17593 27198 ft 395 kts 245°
2026-04-30 02:40 36.85641 -85.19380 27046 ft 396 kts 245°
2026-04-30 02:40 36.84959 -85.20799 26922 ft 397 kts 245°
2026-04-30 02:40 36.84088 -85.22611 26766 ft 398 kts 244°
2026-04-30 02:41 36.82716 -85.25463 26520 ft 399 kts 244°
2026-04-30 02:41 36.81245 -85.28517 26255 ft 401 kts 244°
2026-04-30 02:41 36.79806 -85.31503 26020 ft 402 kts 244°
2026-04-30 02:41 36.78359 -85.34503 25781 ft 404 kts 244°
2026-04-30 02:42 36.76904 -85.37516 25537 ft 406 kts 244°
2026-04-30 02:42 36.75447 -85.40529 25298 ft 406 kts 244°
2026-04-30 02:42 36.73987 -85.43547 25061 ft 406 kts 244°
2026-04-30 02:42 36.72526 -85.46564 24822 ft 405 kts 244°
2026-04-30 02:43 36.71077 -85.49550 24589 ft 401 kts 244°
2026-04-30 02:43 36.69641 -85.52507 24358 ft 399 kts 244°
2026-04-30 02:43 36.68192 -85.55481 24136 ft 400 kts 244°
2026-04-30 02:43 36.66748 -85.58452 23903 ft 401 kts 244°
2026-04-30 02:44 36.65328 -85.61378 23704 ft 396 kts 244°
2026-04-30 02:44 36.63942 -85.64224 23274 ft 385 kts 244°
2026-04-30 02:44 36.62560 -85.67061 22608 ft 381 kts 244°
2026-04-30 02:44 36.61209 -85.69838 21795 ft 381 kts 244°
2026-04-30 02:45 36.59831 -85.72669 20990 ft 380 kts 243°
2026-04-30 02:45 36.58461 -85.75477 20276 ft 379 kts 243°
2026-04-30 02:45 36.57215 -85.78026 19673 ft 376 kts 243°
2026-04-30 02:46 36.56608 -85.79266 19389 ft 375 kts 243°
2026-04-30 02:46 36.55271 -85.82040 18741 ft 373 kts 243°
2026-04-30 02:46 36.53952 -85.84820 18042 ft 372 kts 243°
2026-04-30 02:46 36.52643 -85.87589 17326 ft 370 kts 243°
2026-04-30 02:47 36.51342 -85.90333 16686 ft 367 kts 243°
2026-04-30 02:47 36.50044 -85.93063 16012 ft 365 kts 243°
2026-04-30 02:47 36.48751 -85.95775 15357 ft 364 kts 242°
2026-04-30 02:47 36.47476 -85.98448 14722 ft 362 kts 242°
2026-04-30 02:48 36.46251 -86.01018 14351 ft 355 kts 242°
2026-04-30 02:48 36.45013 -86.03602 14259 ft 340 kts 242°
2026-04-30 02:48 36.43827 -86.06073 14127 ft 327 kts 242°
2026-04-30 02:48 36.42677 -86.08475 13869 ft 320 kts 242°
2026-04-30 02:49 36.41559 -86.10813 13769 ft 307 kts 242°
2026-04-30 02:49 36.40488 -86.13048 13695 ft 296 kts 242°
2026-04-30 02:49 36.39452 -86.15207 13596 ft 286 kts 242°
2026-04-30 02:49 36.38463 -86.17269 13433 ft 278 kts 243°
2026-04-30 02:50 36.37480 -86.19315 13239 ft 273 kts 242°
2026-04-30 02:50 36.36510 -86.21332 12914 ft 272 kts 242°
2026-04-30 02:50 36.35541 -86.23346 12668 ft 268 kts 242°
2026-04-30 02:50 36.34586 -86.25332 12363 ft 268 kts 242°
2026-04-30 02:51 36.33637 -86.27303 12195 ft 262 kts 242°
2026-04-30 02:51 36.32707 -86.29232 12003 ft 258 kts 241°
2026-04-30 02:51 36.31789 -86.31137 11702 ft 257 kts 241°
2026-04-30 02:51 36.30871 -86.33042 11412 ft 257 kts 241°
2026-04-30 02:52 36.29957 -86.34937 11135 ft 256 kts 241°
2026-04-30 02:52 36.29045 -86.36827 10871 ft 255 kts 241°
2026-04-30 02:52 36.28149 -86.38683 10590 ft 254 kts 241°
2026-04-30 02:52 36.27238 -86.40569 10315 ft 253 kts 240°
2026-04-30 02:53 36.26335 -86.42435 10052 ft 252 kts 240°
2026-04-30 02:53 36.25447 -86.44270 9748 ft 252 kts 240°
2026-04-30 02:53 36.24532 -86.46158 9428 ft 252 kts 241°
2026-04-30 02:53 36.23629 -86.48022 9092 ft 253 kts 241°
2026-04-30 02:54 36.22830 -86.49669 8827 ft 253 kts 241°
2026-04-30 02:54 36.21748 -86.51349 8487 ft 258 kts 221°
2026-04-30 02:54 36.20179 -86.52437 8284 ft 260 kts 205°
2026-04-30 02:54 36.18490 -86.53149 8206 ft 251 kts 202°
2026-04-30 02:55 36.16843 -86.53774 8110 ft 244 kts 201°
2026-04-30 02:55 36.15230 -86.54387 7917 ft 241 kts 202°
2026-04-30 02:55 36.13643 -86.55009 7668 ft 241 kts 202°
2026-04-30 02:55 36.12045 -86.55643 7431 ft 240 kts 202°
2026-04-30 02:56 36.10506 -86.56260 7192 ft 240 kts 204°
2026-04-30 02:56 36.09098 -86.57353 6907 ft 229 kts 236°
2026-04-30 02:56 36.08475 -86.59047 6728 ft 220 kts 263°
2026-04-30 02:56 36.08553 -86.60956 6482 ft 217 kts 287°
2026-04-30 02:57 36.09231 -86.62597 6226 ft 216 kts 309°
2026-04-30 02:57 36.10243 -86.63966 5984 ft 215 kts 313°
2026-04-30 02:57 36.11155 -86.65426 5709 ft 217 kts 293°
2026-04-30 02:57 36.11313 -86.67234 5471 ft 222 kts 262°
2026-04-30 02:58 36.10635 -86.68984 5212 ft 229 kts 230°
2026-04-30 02:58 36.09304 -86.70084 4964 ft 234 kts 202°
2026-04-30 02:58 36.07724 -86.70686 4753 ft 240 kts 197°
2026-04-30 02:58 36.06104 -86.71254 4501 ft 243 kts 197°
2026-04-30 02:59 36.04472 -86.71824 4250 ft 244 kts 197°
2026-04-30 02:59 36.02845 -86.72398 4058 ft 241 kts 197°
2026-04-30 02:59 36.01241 -86.72968 4038 ft 242 kts 197°
2026-04-30 02:59 35.99631 -86.73544 4030 ft 241 kts 197°
2026-04-30 03:00 35.98022 -86.74122 4010 ft 240 kts 197°
2026-04-30 03:00 35.96424 -86.74694 4002 ft 237 kts 197°
2026-04-30 03:00 35.94831 -86.75226 3999 ft 237 kts 188°
2026-04-30 03:00 35.93255 -86.74891 4014 ft 231 kts 150°
2026-04-30 03:01 35.91806 -86.73956 4017 ft 238 kts 153°
2026-04-30 03:01 35.90279 -86.73134 4015 ft 243 kts 156°
2026-04-30 03:01 35.88675 -86.72342 4017 ft 251 kts 157°
2026-04-30 03:01 35.87055 -86.71574 4018 ft 252 kts 158°
2026-04-30 03:02 35.85343 -86.71172 3962 ft 251 kts 189°
2026-04-30 03:02 35.83815 -86.72040 3985 ft 241 kts 228°
2026-04-30 03:02 35.82996 -86.73780 3998 ft 234 kts 262°
2026-04-30 03:02 35.83020 -86.75754 3996 ft 230 kts 291°
2026-04-30 03:03 35.83807 -86.77391 3974 ft 223 kts 320°
2026-04-30 03:03 35.86624 -86.78364 3987 ft 216 kts 11°
2026-04-30 03:03 35.88063 -86.77856 3996 ft 215 kts 15°
2026-04-30 03:04 35.89498 -86.77306 4002 ft 215 kts 16°
2026-04-30 03:04 35.90939 -86.76755 4001 ft 218 kts 16°
2026-04-30 03:04 35.92399 -86.76199 3997 ft 221 kts 15°
2026-04-30 03:04 35.93849 -86.75650 4006 ft 220 kts 15°
2026-04-30 03:05 35.95315 -86.75091 4002 ft 219 kts 16°
2026-04-30 03:05 35.96746 -86.74532 4002 ft 212 kts 16°
2026-04-30 03:05 35.98108 -86.73998 4015 ft 196 kts 16°
2026-04-30 03:05 35.99358 -86.73508 4005 ft 181 kts 16°
2026-04-30 03:06 36.00521 -86.73047 3896 ft 172 kts 15°
2026-04-30 03:06 36.01641 -86.72620 3709 ft 167 kts 15°
2026-04-30 03:06 36.02720 -86.72192 3523 ft 160 kts 17°
2026-04-30 03:06 36.03775 -86.71767 3316 ft 159 kts 15°
2026-04-30 03:07 36.04866 -86.71344 2994 ft 173 kts 16°
2026-04-30 03:07 36.06123 -86.70857 2825 ft 204 kts 15°
2026-04-30 03:07 36.07544 -86.70303 2744 ft 223 kts 17°
2026-04-30 03:07 36.09036 -86.69731 2958 ft 220 kts 16°
2026-04-30 03:08 36.10467 -86.69200 3349 ft 214 kts 15°
2026-04-30 03:08 36.11838 -86.68681 3791 ft 206 kts 16°